This is the latest recevied weather packets stored in our database for station/object W2IRT. If no packets are shown the sender has not sent any weather packets the latest 1 day(s).
| Time | Temp. | Humidity | Pressure | Rain* | Wind** | Luminosity | Snow |
|---|---|---|---|---|---|---|---|
| 1778022916 | 27.22° C | 27% | 1007.5 hPa | 0 mm | 0.89 m/s, 225° | - | - |
| 1778022616 | 27.22° C | 27% | 1007.5 hPa | 0 mm | 0.89 m/s, 225° | - | - |
| 1778022316 | 27.22° C | 27% | 1007.3 hPa | 0 mm | 2.24 m/s, 202° | - | - |
| 1778022016 | 27.22° C | 27% | 1007.2 hPa | 0 mm | 0.89 m/s, 225° | - | - |
| 1778021716 | 27.22° C | 26% | 1007.3 hPa | 0 mm | 1.34 m/s, 225° | - | - |
| 1778021416 | 27.78° C | 26% | 1007.2 hPa | 0 mm | 2.24 m/s, 225° | - | - |
| 1778021116 | 27.78° C | 26% | 1007.1 hPa | 0 mm | 0.89 m/s, 225° | - | - |
| 1778020816 | 27.78° C | 25% | 1007 hPa | 0 mm | 1.79 m/s, 202° | - | - |
| 1778020516 | 27.78° C | 25% | 1007.1 hPa | 0 mm | 0.89 m/s, 225° | - | - |
| 1778020216 | 27.78° C | 25% | 1007 hPa | 0 mm | 2.24 m/s, 225° | - | - |
| 1778019931 | 27.78° C | 25% | 1007 hPa | 0 mm | 1.79 m/s, 225° | - | - |
| 1778019616 | 27.78° C | 25% | 1007 hPa | 0 mm | 2.24 m/s, 202° | - | - |
| 1778019316 | 27.78° C | 26% | 1006.9 hPa | 0 mm | 1.79 m/s, 225° | - | - |
| 1778019016 | 27.78° C | 25% | 1006.9 hPa | 0 mm | 0.89 m/s, 225° | - | - |
| 1778018716 | 27.78° C | 24% | 1006.9 hPa | 0 mm | 2.68 m/s, 225° | - | - |
| 1778018416 | 28.33° C | 25% | 1007 hPa | 0 mm | 2.24 m/s, 202° | - | - |
| 1778018126 | 27.78° C | 25% | 1006.8 hPa | 0 mm | 2.68 m/s, 225° | - | - |
| 1778017816 | 27.78° C | 25% | 1006.7 hPa | 0 mm | 1.79 m/s, 202° | - | - |
| 1778017516 | 28.33° C | 26% | 1006.7 hPa | 0 mm | 0.89 m/s, 225° | - | - |
| 1778017216 | 28.33° C | 26% | 1006.6 hPa | 0 mm | 0.89 m/s, 225° | - | - |
| 1778016916 | 28.33° C | 26% | 1006.5 hPa | 0 mm | 1.79 m/s, 225° | - | - |
| 1778016616 | 28.89° C | 26% | 1006.5 hPa | 0 mm | 2.24 m/s, 225° | - | - |
| 1778016316 | 28.89° C | 25% | 1006.5 hPa | 0 mm | 3.13 m/s, 202° | - | - |
| 1778016016 | 28.89° C | 25% | 1006.5 hPa | 0 mm | 2.24 m/s, 202° | - | - |
| 1778015716 | 28.89° C | 26% | 1006.5 hPa | 0 mm | 2.68 m/s, 202° | - | - |
* Rain latest hour (hover to see other rain measurements)
** Current wind speed in m/s (hover to see current wind gust speed)